Weather History for KAAO - September, 2013

Change the Weather History Date:

Sunday, September 15, 2013

  Actual Average (KICT) Record (KICT)
Temperature  
Mean Temperature 78 °F 71 °F  
Max Temperature 91 °F 83 °F 103 °F (1978)
Min Temperature 66 °F 60 °F 37 °F (1993)
Degree Days  
Heating Degree Days 0 1  
Month to date heating degree days 5  
Since 1 July heating degree days 6  
Cooling Degree Days 12 7  
Month to date cooling degree days 145  
Year to date cooling degree days 1572  
Growing Degree Days 28 (Base 50)    
Moisture  
Dew Point 64 °F    
Average Humidity 75    
Maximum Humidity 100    
Minimum Humidity 42    
Precipitation  
Precipitation 0.68 in 0.10 in 1.76 in (1969)
Month to date precipitation 1.60  
Year to date precipitation 25.69  
Snow  
Snow 0.00 in 0.00 in 0.00 in (2007)
Month to date snowfall 0.0  
Since 1 July snowfall 0.0  
Since 1 September snowfall 0.0  
Snow Depth -    
Sea Level Pressure  
Sea Level Pressure 29.99 in    
Wind  
Wind Speed 10 mph (ESE)    
Max Wind Speed 21 mph    
Max Gust Speed 30 mph    
Visibility 8 miles    
Events Fog , Rain , Thunderstorm    
T = Trace of Precipitation, MM = Missing Value Source: NWS Daily Summary

Daily Weather History Graph

Daily Weather History Graph

Search for Another Location

Airport or City:

Trip Planner

Search our weather history database for the weather conditions in past years. The results will help you decide how hot, cold, wet, or windy it might be!

Date:

Astronomy

Sep. 15, 2013 Rise Set
Actual Time 7:10 AM CDT 7:36 PM CDT
Civil Twilight 6:44 AM CDT 8:02 PM CDT
Nautical Twilight 6:13 AM CDT 8:33 PM CDT
Astronomical Twilight 5:42 AM CDT 9:04 PM CDT
Moon 5:01 PM CDT (9/15) 2:54 AM CDT (9/15)
Length of Visible Light 13h 17m
Length of Day
12h 25m
Waxing Gibbous, 82% of the Moon is Illuminated
Sep 15
Waxing Gibbous
Sep 19
Full
Sep 26
Last Quarter
Oct 4
New
Oct 11
First Quarter

Hourly Weather History & Observations

Time (CDT) Temp. Heat Index Dew Point Humidity Pressure Visibility Wind Dir Wind Speed Gust Speed Precip Events Conditions
12:54 AM 70.0 °F - 61.0 °F 73% 29.93 in 10.0 mi South 9.2 mph - N/A   Clear
1:54 AM 71.1 °F - 61.0 °F 70% 29.91 in 10.0 mi South 11.5 mph - N/A   Clear
2:54 AM 69.1 °F - 60.1 °F 73% 29.91 in 10.0 mi South 9.2 mph - N/A   Clear
3:54 AM 68.0 °F - 60.1 °F 76% 29.91 in 10.0 mi South 6.9 mph - N/A   Clear
4:54 AM 68.0 °F - 59.0 °F 73% 29.91 in 10.0 mi South 6.9 mph - N/A   Clear
5:54 AM 68.0 °F - 59.0 °F 73% 29.92 in 10.0 mi South 8.1 mph - N/A   Clear
6:54 AM 66.9 °F - 59.0 °F 76% 29.94 in 10.0 mi South 6.9 mph - N/A   Clear
7:54 AM 68.0 °F - 60.1 °F 76% 29.94 in 10.0 mi South 8.1 mph - N/A   Clear
8:54 AM 72.0 °F - 60.1 °F 66% 29.94 in 10.0 mi South 13.8 mph - N/A   Clear
9:54 AM 75.9 °F - 61.0 °F 60% 29.95 in 10.0 mi SSW 12.7 mph 21.9 mph N/A   Clear
10:54 AM 80.1 °F 81.1 °F 61.0 °F 52% 29.96 in 10.0 mi SSW 16.1 mph 21.9 mph N/A   Clear
11:54 AM 82.0 °F 83.0 °F 62.1 °F 51% 29.94 in 10.0 mi South 15.0 mph 23.0 mph N/A   Clear
12:54 PM 86.0 °F 86.8 °F 63.0 °F 46% 29.94 in 10.0 mi South 10.4 mph - N/A   Clear
1:54 PM 89.1 °F 90.3 °F 64.0 °F 43% 29.93 in 10.0 mi SSW 10.4 mph - N/A   Clear
2:54 PM 89.1 °F 90.3 °F 64.0 °F 43% 29.92 in 10.0 mi South 9.2 mph - N/A   Clear
3:54 PM 89.1 °F 90.3 °F 64.0 °F 43% 29.91 in 10.0 mi SSE 6.9 mph - N/A   Partly Cloudy
4:54 PM 89.1 °F 90.0 °F 63.0 °F 42% 29.90 in 10.0 mi SSE 8.1 mph - N/A Thunderstorm Thunderstorm
5:54 PM 84.0 °F 86.5 °F 66.9 °F 56% 29.92 in 10.0 mi North 13.8 mph - 0.00 in Thunderstorm Mostly Cloudy
6:39 PM 71.6 °F - 69.8 °F 94% 30.05 in 1.5 mi NW 20.7 mph 29.9 mph 0.16 in Rain , Thunderstorm Heavy Thunderstorms and Rain
6:46 PM 71.6 °F - 69.8 °F 94% 30.04 in 0.5 mi North 11.5 mph 26.5 mph 0.46 in Fog , Rain , Thunderstorm Heavy Thunderstorms and Rain
6:54 PM 70.0 °F - 69.1 °F 97% 30.00 in 0.8 mi NNE 15.0 mph - 0.55 in Rain , Thunderstorm Heavy Thunderstorms and Rain
6:58 PM 69.8 °F - - N/A% 30.02 in 2.5 mi NNE 15.0 mph - 0.00 in Rain , Thunderstorm Light Thunderstorms and Rain
7:05 PM 69.8 °F - - N/A% 30.01 in 10.0 mi NE 15.0 mph - 0.00 in Rain , Thunderstorm Light Thunderstorms and Rain
7:13 PM 69.8 °F - - N/A% 30.01 in 10.0 mi ENE 12.7 mph - 0.00 in Thunderstorm Mostly Cloudy
7:25 PM 69.8 °F - - N/A% 30.00 in 10.0 mi ENE 11.5 mph 19.6 mph 0.00 in   Scattered Clouds
7:54 PM 70.0 °F - - N/A% 29.97 in 10.0 mi East 8.1 mph - 0.00 in   Partly Cloudy
8:46 PM 69.8 °F - - N/A% 30.07 in 3.0 mi North 4.6 mph - 0.11 in Rain , Thunderstorm Heavy Thunderstorms and Rain
8:54 PM 68.0 °F - - N/A% 30.05 in 3.0 mi Variable 3.5 mph - 0.13 in Rain , Thunderstorm Thunderstorms and Rain
9:45 PM 68.0 °F - 68.0 °F 100% 30.09 in 10.0 mi NE 8.1 mph - 0.00 in   Mostly Cloudy
9:54 PM 69.1 °F - 69.1 °F 100% 30.06 in 10.0 mi East 5.8 mph - 0.00 in Thunderstorm Partly Cloudy
10:08 PM 69.8 °F - 69.8 °F 100% 30.09 in 10.0 mi NE 4.6 mph - N/A   Scattered Clouds
10:54 PM 69.1 °F - 69.1 °F 100% 30.05 in 10.0 mi NE 9.2 mph - N/A   Mostly Cloudy
11:12 PM 69.8 °F - 69.8 °F 100% 30.09 in 7.0 mi NE 9.2 mph - N/A   Scattered Clouds
11:32 PM 68.0 °F - 66.2 °F 94% 30.09 in 6.0 mi NE 11.5 mph - N/A   Mostly Cloudy
11:42 PM 68.0 °F - 66.2 °F 94% 30.10 in 6.0 mi NNE 8.1 mph 17.3 mph N/A   Mostly Cloudy
11:54 PM 66.9 °F - 66.0 °F 97% 30.07 in 6.0 mi North 11.5 mph - N/A   Mostly Cloudy